Location: Albuquerque Trailhead
(34.7934°N, 106.3736°W)
Time: 05:30:30
(UTC+00:00)

Cosmos 2219 Rocket - Pass Details

Date: 20 June 2021
Orbit: 829 x 846 km, 71.0° (Epoch: 29 July)

Event Time Altitude Azimuth Distance (km) Brightness Sun altitude
Exits shadow 03:18:53 13° 133° (SE) 2,223 3.7 -10.5°
Maximum altitude 03:21:38 19° 100° (E) 1,925 3.6 -11.0°
Drops below altitude 10° 03:25:25 10° 57° (ENE) 2,468 4.5 -11.6°
Sets 03:28:34 0° 40° (NE) 3,407 5.4 -12.1°
